TimeMST,TemperatureF,Dew PointF,Humidity,Sea Level PressureIn,VisibilityMPH,Wind Direction,Wind SpeedMPH,Gust SpeedMPH,PrecipitationIn,Events,Conditions,WindDirDegrees,DateUTC
12:53 AM,79.0,23.0,13,29.85,10.0,Calm,Calm,-,N/A,,Clear,0,2014-05-05 07:53:00
1:53 AM,75.9,25.0,15,29.84,10.0,Calm,Calm,-,N/A,,Clear,0,2014-05-05 08:53:00
2:53 AM,73.0,25.0,17,29.84,10.0,Calm,Calm,-,N/A,,Clear,0,2014-05-05 09:53:00
3:53 AM,71.1,28.9,21,29.84,10.0,Calm,Calm,-,N/A,,Clear,0,2014-05-05 10:53:00
4:53 AM,70.0,27.0,20,29.85,10.0,NE,3.5,-,N/A,,Clear,40,2014-05-05 11:53:00
5:53 AM,71.1,25.0,18,29.85,10.0,NE,3.5,-,N/A,,Clear,40,2014-05-05 12:53:00
6:53 AM,70.0,28.0,21,29.87,10.0,Calm,Calm,-,N/A,,Clear,0,2014-05-05 13:53:00
7:53 AM,78.1,28.9,17,29.86,10.0,SE,5.8,-,N/A,,Clear,130,2014-05-05 14:53:00
8:53 AM,81.0,28.9,15,29.87,10.0,South,10.4,17.3,N/A,,Clear,170,2014-05-05 15:53:00
9:53 AM,82.9,30.9,15,29.87,10.0,SSE,6.9,-,N/A,,Clear,160,2014-05-05 16:53:00
11:53 AM,88.0,28.0,12,29.84,10.0,SE,5.8,-,N/A,,Clear,140,2014-05-05 18:53:00
12:53 PM,91.0,25.0,9,29.83,10.0,SW,6.9,-,N/A,,Clear,220,2014-05-05 19:53:00
1:53 PM,91.9,24.1,9,29.80,10.0,SSW,10.4,19.6,N/A,,Clear,200,2014-05-05 20:53:00
2:53 PM,93.9,24.1,8,29.76,10.0,WSW,16.1,23.0,N/A,,Clear,250,2014-05-05 21:53:00
3:53 PM,93.0,21.9,8,29.73,10.0,WSW,13.8,19.6,N/A,,Clear,250,2014-05-05 22:53:00
4:53 PM,93.0,21.9,8,29.72,10.0,WSW,10.4,19.6,N/A,,Clear,240,2014-05-05 23:53:00
5:53 PM,91.0,19.9,7,29.70,10.0,West,11.5,18.4,N/A,,Clear,260,2014-05-06 00:53:00
6:53 PM,88.0,18.0,8,29.71,10.0,WSW,16.1,23.0,N/A,,Clear,240,2014-05-06 01:53:00
7:53 PM,86.0,18.0,8,29.73,10.0,WSW,10.4,-,N/A,,Clear,240,2014-05-06 02:53:00
9:53 PM,81.0,19.9,10,29.74,10.0,WSW,4.6,-,N/A,,Clear,250,2014-05-06 04:53:00
10:53 PM,78.1,21.0,12,29.73,10.0,Calm,Calm,-,N/A,,Clear,0,2014-05-06 05:53:00
11:53 PM,75.9,23.0,14,29.73,10.0,Calm,Calm,-,N/A,,Clear,0,2014-05-06 06:53:00